Location: Julian California
(33.0790°N, 116.6010°W)
Time: 09:07:21
(UTC-07:00)

Cosmos 1570 Rocket - Pass Details

Date: 12 July 2018
Orbit: 763 x 788 km, 74.1° (Epoch: 20 September)

Event Time Altitude Azimuth Distance (km) Brightness Sun altitude
Rises 21:57:31 0° 343° (NNW) 3,230 8.3 -21.1°
Reaches altitude 10° 21:59:54 10° 343° (NNW) 2,299 7.4 -21.4°
Maximum altitude 22:05:07 90° 265° (W) 766 3.9 -22.2°
Enters shadow 22:06:28 51° 165° (SSE) 948 4.1 -22.3°
